Kinston, NC

7:24 AM EST on January 16, 2018 (GMT -0500)
Kinston Regional Jetport / Stallings Field

Weather History for KISO - August, 2013

Change the Weather History Date:

Saturday, August 31, 2013

  Actual Average Record
Temperature  
Mean Temperature 77 °F -  
Max Temperature 89 °F 83 °F 96 °F (1970)
Min Temperature 65 °F 67 °F 47 °F (1976)
Cooling Degree Days 12    
Growing Degree Days 27 (Base 50)    
Moisture  
Dew Point 69 °F    
Average Humidity 85    
Maximum Humidity 100    
Minimum Humidity 43    
Precipitation  
Precipitation 0.00 in - - ()
Sea Level Pressure  
Sea Level Pressure 29.96 in    
Wind  
Wind Speed 2 mph (South)    
Max Wind Speed 9 mph    
Max Gust Speed -    
Visibility 6 miles    
Events Fog    
Averages and records for this station are not official NWS values.
T = Trace of Precipitation, MM = Missing Value Source: NWS Daily Summary

Daily Weather History Graph

Daily Weather History Graph

Search for Another Location

Airport or City:

Trip Planner

Search our weather history database for the weather conditions in past years. The results will help you decide how hot, cold, wet, or windy it might be!

Date:

Astronomy

Aug. 31, 2013 Rise Set
Actual Time 6:42 AM EDT 7:38 PM EDT
Civil Twilight 6:16 AM EDT 8:04 PM EDT
Nautical Twilight 5:45 AM EDT 8:35 PM EDT
Astronomical Twilight 5:13 AM EDT 9:06 PM EDT
Moon 2:15 AM EDT (8/31) 4:29 PM EDT (8/31)
Length of Visible Light 13h 48m
Length of Day
12h 56m
Waning Crescent, 21% of the Moon is Illuminated
Aug 31
Waning Crescent
Sep 5
New
Sep 12
First Quarter
Sep 19
Full
Sep 26
Last Quarter

Hourly Weather History & Observations

Time (EDT) Temp. Heat Index Dew Point Humidity Pressure Visibility Wind Dir Wind Speed Gust Speed Precip Events Conditions
12:15 AM 71.6 °F - 69.3 °F 92% 29.98 in 10.0 mi Calm Calm - N/A   Clear
12:35 AM 70.9 °F - 69.4 °F 95% 29.98 in 7.0 mi Calm Calm - N/A   Clear
12:55 AM 71.2 °F - 70.0 °F 96% 29.98 in 7.0 mi Calm Calm - N/A   Clear
1:15 AM 70.2 °F - 68.9 °F 96% 29.98 in 7.0 mi Calm Calm - N/A   Clear
1:35 AM 69.1 °F - 68.0 °F 96% 29.98 in 7.0 mi Calm Calm - N/A   Clear
1:55 AM 69.6 °F - 68.7 °F 97% 29.98 in 2.5 mi Calm Calm - N/A   Mist
2:15 AM 68.4 °F - 67.5 °F 97% 29.97 in 4.0 mi Calm Calm - N/A   Clear
2:35 AM 67.8 °F - 66.9 °F 97% 29.97 in 10.0 mi Calm Calm - N/A   Clear
2:55 AM 67.3 °F - 66.4 °F 97% 29.97 in 5.0 mi Calm Calm - N/A   Clear
3:15 AM 67.6 °F - 66.7 °F 97% 29.97 in 5.0 mi Calm Calm - N/A   Clear
3:35 AM 66.4 °F - 65.5 °F 97% 29.97 in 1.2 mi Calm Calm - N/A   Scattered Clouds
3:55 AM 66.9 °F - 66.4 °F 98% 29.97 in 1.2 mi Calm Calm - N/A   Mostly Cloudy
4:15 AM 66.6 °F - 66.0 °F 98% 29.97 in 7.0 mi Calm Calm - N/A   Scattered Clouds
4:35 AM 66.6 °F - 65.8 °F 98% 29.97 in 2.0 mi Calm Calm - N/A   Mist
4:55 AM 65.8 °F - 65.3 °F 98% 29.97 in 0.8 mi Calm Calm - N/A   Overcast
5:15 AM 67.1 °F - 66.4 °F 98% 29.97 in 0.2 mi Calm Calm - N/A Fog Fog
5:35 AM 68.0 °F - 67.3 °F 98% 29.98 in 0.2 mi Calm Calm - N/A Fog Fog
5:55 AM 68.0 °F - 67.5 °F 98% 29.98 in 0.2 mi Calm Calm - N/A Fog Fog
6:15 AM 68.0 °F - 67.6 °F 99% 29.98 in 0.2 mi Calm Calm - N/A Fog Fog
6:35 AM 68.4 °F - 68.0 °F 99% 29.98 in 0.2 mi Calm Calm - N/A Fog Fog
6:55 AM 68.7 °F - 68.2 °F 98% 29.98 in 0.2 mi Calm Calm - N/A Fog Fog
6:56 AM 68.0 °F - 68.0 °F 100% 29.98 in 0.2 mi Calm Calm - N/A Fog Fog
7:56 AM 69.8 °F - 69.8 °F 100% 29.99 in 0.2 mi Calm Calm - N/A Fog Fog
8:56 AM 71.6 °F - 71.6 °F 100% 29.99 in 0.2 mi Calm Calm - N/A Fog Fog
9:45 AM 73.4 °F - 73.4 °F 100% 30.00 in 7.0 mi South 3.5 mph - N/A   Scattered Clouds
11:56 AM 84.2 °F 87.3 °F 68.0 °F 58% 29.99 in 10.0 mi SSE 6.9 mph - N/A   Scattered Clouds
12:56 PM 86.0 °F 89.4 °F 68.0 °F 55% 29.98 in 10.0 mi South 5.8 mph - N/A   Scattered Clouds
1:56 PM 87.8 °F 89.4 °F 64.4 °F 46% 29.96 in 10.0 mi South 3.5 mph - N/A   Clear
2:56 PM 87.8 °F 88.5 °F 62.6 °F 43% 29.94 in 10.0 mi SSW 9.2 mph - N/A   Clear
3:56 PM 89.6 °F 91.1 °F 64.4 °F 43% 29.91 in 10.0 mi SSW 8.1 mph - N/A   Clear
4:56 PM 89.6 °F 91.1 °F 64.4 °F 43% 29.90 in 10.0 mi SSW 6.9 mph - N/A   Clear
5:56 PM 89.6 °F 91.1 °F 64.4 °F 43% 29.90 in 10.0 mi SSW 5.8 mph - N/A   Clear
6:56 PM 86.0 °F 88.2 °F 66.2 °F 51% 29.90 in 10.0 mi South 4.6 mph - N/A   Clear
7:56 PM 80.6 °F 84.6 °F 71.6 °F 74% 29.91 in 10.0 mi South 6.9 mph - N/A   Clear
8:56 PM 78.8 °F - 71.6 °F 78% 29.92 in 10.0 mi South 6.9 mph - N/A   Clear
9:15 PM 78.8 °F - 72.0 °F 79% 29.92 in 10.0 mi South 6.9 mph - N/A   Clear
9:35 PM 78.6 °F - 72.0 °F 80% 29.93 in 10.0 mi South 4.6 mph - N/A   Clear
9:55 PM 78.1 °F - 72.1 °F 82% 29.94 in 10.0 mi South 3.5 mph - N/A   Clear
10:15 PM 77.9 °F - 72.5 °F 83% 29.94 in 10.0 mi South 3.5 mph - N/A   Clear
10:35 PM 77.4 °F - 72.5 °F 85% 29.94 in 10.0 mi South 4.6 mph - N/A   Clear
10:55 PM 77.0 °F - 72.9 °F 87% 29.94 in 10.0 mi South 5.8 mph - N/A   Clear
11:15 PM 76.6 °F - 73.0 °F 89% 29.93 in 10.0 mi South 6.9 mph - N/A   Clear
11:35 PM 76.5 °F - 73.0 °F 89% 29.94 in 10.0 mi South 6.9 mph - N/A   Clear
11:55 PM 76.1 °F - 73.0 °F 90% 29.94 in 10.0 mi South 4.6 mph - N/A   Clear